Location: ????
(30.2663°N, 31.2484°E)
Time: 03:41:04
(UTC+00:00)

Atlas Centaur 2 - Pass Details

Date: 27 September 2022
Orbit: 459 x 1300 km, 30.4° (Epoch: 01 December)

Event Time Altitude Azimuth Distance (km) Brightness Sun altitude
Exits shadow 01:58:56 44° 261° (W) 1,602 3.1 -23.8°
Maximum altitude 02:01:50 88° 178° (S) 1,145 2.7 -23.2°
Drops below altitude 10° 02:08:44 10° 85° (E) 2,743 6.0 -21.7°
Sets 02:11:09 0° 86° (E) 3,570 7.0 -21.2°
